Find Kuiper-00064

NORAD ID: 64524 Int'l Des: 2025-134 Owner: KUIP Country: US Constellation: kuiper operational
LEOCIRCULAR

Live-Position

3D-Globus wird geladen...

Über Kuiper-00064

Beschreibung wird geladen...

Nächste Überflüge

Passes for default location (London). Set your location on the main map for personalized predictions.

Höhenverlauf

Loading altitude history...

Zweizeiliger Elementsatz

1 64524U 25134AA 26106.57935812 .00002094 00000-0 30377-3 0 9999
2 64524 51.9032 67.9814 0000742 92.6974 267.4073 14.79913231 45657
Epoch: 16. Apr. 2026 • Age: 18 hours

Aktueller Status

Höhe 630.0 km
Geschwindigkeit 7.54 km/s
Subsatellitenpunkt 3.45°N, 105.64°E
Startdatum 23. Juni 2025
Alter 0.8 years
Typ internet

Technische Details

Klassifizierung Payload
Masse 490.00 kg
Trockenmasse 490.00 kg
Gesamtmasse 490.00 kg
Länge 1.80 m
Durchmesser 0.70 m
Spannweite 5.00 m
Form Box + 2 pan
Hersteller KUIP
Bus-Typ Kuiper
Phasenstatus In Orbit
Besitzer/Staat KUIP/US

Most Searched